Location: Saint-Palais-sur-Mer
(45.6429°N, 1.0859°W)
Time: 14:09:29
(UTC+01:00)

BlueWalker 3 - Pass Details

Date: 24 January 2026
Orbit: 451 x 461 km, 53.2° (Epoch: 13 February)

Event Time Altitude Azimuth Distance (km) Brightness Sun altitude
Rises 19:46:35 0° 253° (WSW) 2,451 7.0 -18.7°
Reaches altitude 10° 19:48:46 10° 259° (W) 1,580 5.7 -19.0°
Maximum altitude 19:52:13 48° 335° (NNW) 596 2.3 -19.6°
Enters shadow 19:52:49 43° 9° (N) 648 2.3 -19.7°
